EA5SW-13 Weather Reports


time (UTC)temp
F
wind
direction
speed
knots
gust
knots
rain 1hr
in
rain 24hr
in
rain mn
in
humidity
%
barometer
mb
20260503041500 65 0.0 0.9 0.00 0.00 0.00 80
20260503040524 65 0.0 0.9 0.00 0.00 0.00 80
20260503035306 65 0.0 0.0 0.00 0.00 0.00 81
20260503034239 65 0.0 0.9 0.00 0.00 0.00 81
20260503033303 65 0.0 0.9 0.00 0.00 0.00 82
20260503032241 65 0.0 0.0 0.00 0.00 0.00 82
20260503031304 65 0.0 0.0 0.00 0.00 0.00 82
20260503030239 65 0.0 0.0 0.00 0.00 0.00 82
20260503025704 65 0.0 0.0 0.00 0.00 0.00 82
20260503024640 65 0.0 0.0 0.00 0.00 0.00 82
20260503023704 65 0.0 0.0 0.00 0.00 0.00 82
20260503022640 65 0.0 0.0 0.00 0.00 0.00 82
20260503021704 65 0.0 0.0 0.00 0.00 0.00 82
20260503020640 0 0.0 0.0 0.00 0.00 0.00
20260503015704 65 0.0 0.0 0.00 0.00 0.00 82
20260503014640 65 0.0 0.0 0.00 0.00 0.00 82
20260503013704 65 0.0 0.0 0.00 0.00 0.00 82
20260503012640 65 0.0 0.0 0.00 0.00 0.00 82
20260503011704 65 0.0 0.0 0.00 0.00 0.00 82
20260503010639 66 0.0 0.9 0.00 0.00 0.00 81
20260503005704 65 0.0 0.9 0.00 0.00 0.00 81
20260503004720 66 0.0 0.9 0.00 0.00 0.00 81
20260503003724 66 0.0 0.0 0.00 0.00 0.00 81
20260503002700 66 0.0 0.0 0.00 0.00 0.00 82
20260503001704 66 0.0 0.9 0.00 0.00 0.00 82
20260503000720 0 0.0 0.0 0.00 0.00 0.00
20260502235724 66 0.0 0.0 0.00 0.00 0.00 81
20260502234640 66 0.0 0.0 0.00 0.00 0.00 81
20260502233704 66 0.0 0.0 0.00 0.00 0.00 81
20260502232640 66 0.0 0.0 0.00 0.00 0.00 81
20260502231704 66 0.0 0.9 0.00 0.00 0.00 81
20260502230640 66 0.0 0.0 0.00 0.00 0.00 81
20260502225704 66 0.0 0.0 0.00 0.00 0.00 81
20260502224640 66 0.0 0.0 0.00 0.00 0.00 80
20260502223704 66 0.0 0.0 0.00 0.00 0.00 80
20260502222640 66 0.0 0.0 0.00 0.00 0.00 80
20260502221704 66 0.0 0.0 0.00 0.00 0.00 80
20260502220640 0 0.0 0.0 0.00 0.00 0.00
20260502215704 66 0.0 0.0 0.00 0.00 0.00 80
20260502214640 66 0.0 0.0 0.00 0.00 0.00 80
20260502213704 66 0.0 0.0 0.00 0.00 0.00 80
20260502212641 66 0.0 0.0 0.00 0.00 0.00 80
20260502211704 66 0.0 0.0 0.00 0.00 0.00 80
20260502210700 0 0.0 0.0 0.00 0.00 0.00
20260502205704 66 0.0 0.0 0.00 0.00 0.00 80
20260502204640 66 0.0 0.0 0.00 0.00 0.00 80
20260502203704 66 0.0 0.0 0.00 0.00 0.00 80
20260502202701 66 0.0 0.0 0.00 0.00 0.00 80
20260502201704 66 0.0 0.0 0.00 0.00 0.00 80
20260502200640 66 0.0 0.0 0.00 0.00 0.00 80
20260502195704 66 0.0 0.0 0.00 0.00 0.00 80
20260502194641 66 0.0 0.0 0.00 0.00 0.00 80
20260502193704 66 0.0 0.9 0.00 0.00 0.00 80
20260502192640 66 0.0 0.0 0.00 0.00 0.00 80
20260502191704 66 0.0 0.0 0.00 0.00 0.00 79
20260502190640 0 0.0 0.0 0.00 0.00 0.00
20260502185704 67 0.0 0.9 0.00 0.00 0.00 77
20260502184701 67 0.0 0.0 0.00 0.00 0.00 76
20260502183704 67 0.0 0.0 0.00 0.00 0.00 75
20260502182640 68 0.0 0.0 0.00 0.00 0.00 75
20260502181704 68 0.0 0.0 0.00 0.00 0.00 74
20260502180700 68 0.0 0.0 0.00 0.00 0.00 74
20260502163724 71 0.0 0.0 0.00 0.00 0.00 71
20260502162640 71 0.0 0.0 0.00 0.00 0.00 71
20260502161705 72 0.0 0.0 0.00 0.00 0.00 70
20260502160640 0 0.0 0.0 0.00 0.00 0.00
20260502151705 75 315 0.9 0.9 0.00 0.00 0.00 61
20260502150641 75 0.0 0.9 0.00 0.00 0.00 61
20260502130641 73 0.0 0.9 0.00 0.00 0.00 66
20260502123705 74 0.0 0.9 0.00 0.00 0.00 69
20260502122641 72 0.0 0.9 0.00 0.00 0.00 72
20260502121706 71 0.0 0.0 0.00 0.00 0.00 71
20260502120641 72 0.0 0.9 0.00 0.00 0.00 71
20260502115725 73 0.0 0.0 0.00 0.00 0.00 67
20260502114641 73 0.0 0.9 0.00 0.00 0.00 65
20260502113705 73 0.0 0.9 0.00 0.00 0.00 64
20260502112642 75 0.0 0.9 0.00 0.00 0.00 63
20260502111705 74 0.0 0.9 0.00 0.00 0.00 64
20260502110701 0 0.0 0.0 0.00 0.00 0.00
20260502105705 74 0.0 0.9 0.00 0.00 0.00 64
20260502104641 74 0.0 0.9 0.00 0.01 0.00 64
20260502103706 74 0.0 0.0 0.00 0.01 0.00 64
20260502102641 73 0.0 0.0 0.00 0.04 0.00 65
20260502101705 73 0.0 0.0 0.00 0.07 0.00 63
20260502100642 74 0.0 0.0 0.00 0.08 0.00 63
20260502090641 71 0.0 0.0 0.00 0.08 0.00 72
20260502070641 67 0.0 0.9 0.00 0.08 0.00 79
20260502065705 67 0.0 0.0 0.00 0.08 0.00 80
20260502064641 66 0.0 0.0 0.00 0.08 0.00 80
20260502063705 66 0.0 0.0 0.00 0.08 0.00 81
20260502062641 65 0.0 0.9 0.00 0.08 0.00 82
20260502060642 65 0.0 0.9 0.00 0.08 0.00 83
20260502055705 65 0.0 0.9 0.00 0.08 0.00 84
20260502054642 65 0.0 0.0 0.00 0.08 0.00 84
20260502053705 65 0.0 0.9 0.00 0.08 0.00 85
20260502052641 65 0.0 0.9 0.00 0.08 0.00 85
20260502051706 65 0.0 0.9 0.00 0.08 0.00 85
20260502050642 65 0.0 0.9 0.00 0.08 0.00 85
20260502045706 65 0.0 0.9 0.00 0.09 0.00 85
20260502044642 65 0.0 0.9 0.00 0.09 0.00 84
20260502043706 65 0.0 0.9 0.00 0.09 0.00 84
20260502042642 65 0.0 0.0 0.00 0.09 0.00 84